STARLINK-2517, 48309

Orbit data source: Space-Track

STARLINK-2517, 48309 is a payload satellite owned by SpaceX/Seattle (US) in LEO that was launched on Thu, 29 Apr 2021 UTC via an FALCON 9 launch vehicle from the Air Force Eastern Test Range (AFETR). Payloads include a variety of satellites, spacecraft, and rockets equipped with specific instruments for various scientific and technological missions. These include communications satellites like Starlink; space stations such as the ISS; scientific satellites like the Hubble; Earth observation satellites from companies like Planet Labs, Umbra, and HawkEye 360; GPS; miniature CubeSats for education and research; and military/defense satellites.

Loading next visibility...
STARLINK-2517 details
Identifier
48309, 2021-036AK
Orbit
LEO
Last TLE update10 hours ago
Origin
Flag of USSpaceX/Seattle (US)
ManufacturerSpaceX/Seattle
MissionOperational Commercial Communications
Bus & MotorSTARLINK, Unknown motor
Mass260 kg wet, ~248 kg dry
Launch date (UTC)
2021-04-29 (4 years ago)
Launch vehicle
FALCON 9
Launch site
Air Force Eastern Test Range (AFETR)
Object type
Payload
Rocket body
Debris
Shape & HBRBox + 1 Pan, 8.86 m
Radar Cross Section13.562 m², Large (>1 m²)

Expand to show TLE details & history

TLE from 10 hours ago
0 STARLINK-2517
1 48309U 21036AK  25036.08010866  .00000918  00000-0  80499-4 0  9993
2 48309  53.0547  76.5555 0001282  96.6930 263.4205 15.06401290208830
Epoch: 2025-02-05T01:55Z
Definitive object data (Epoch: 2025-02-05T01:55:21.388Z)
Latitude-0°
Longitude-87.7598°
Altitude548.189 km
Speed7.589 km/s
True Right ascension05h 06m 13s
True Declination0° 00' 00"
Sunlit
Object was in full shadow at TLE epoch
Visualization TLE readout
Latitude43.33065°
Longitude45.47637°
Altitude550.695 km
Speed7.592 km/s
Apparent Right ascension11h 45m 38s
Apparent Declination74° 49' 55"
Sunlit
Object is in full shadow
Visualization observer readout
Local Sidereal Time14:03:46
Azimuth346.157° N
Elevation51.686°
Doppler factor1
Orbital elements
Apogee altitude548.366 km
Perigee altitude546.59 km
Semi-major axis6,925.615 km
Eccentricity0.0001282
Inclination53.0547°
RAAN76.5555°
Arg. of periapsis96.693°
True anomaly263.40591°
Mean anomaly263.4205°
Eccentric anomaly263.4132°
Mean motion3.76579 °/min
BSTAR0.000080499
Orbital period95.6 mins
Loading maneuver chart data...
Loading historical data...
Loading historical data...
Loading historical data...
Loading historical data...
Loading historical data...
Loading historical data...
Loading historical data...

STARLINK-2517 Visibility forecast

Observer location: undefined°, undefined

Span
Click to sort rows by Start time (UTC) header in descending order
Start Az.
Max El. time (UTC)
Max El. Az.
Max El.
End time (UTC)
End Az.
4 mins2025-02-05 12:00:41.563Z345.809° N2025-02-05 12:01:41.563Z60.813° ENE41.527°2025-02-05 12:04:41.563Z117.551° SE
6 mins2025-02-06 05:10:41.563Z227.699° WSW2025-02-06 05:13:41.563Z76.953° E44.848°2025-02-06 05:16:41.563Z50.937° ENE
5 mins2025-02-06 06:51:41.563Z302.493° NW2025-02-06 06:53:41.563Z341.308° N20.079°2025-02-06 06:56:41.563Z28.983° NE
4 mins2025-02-06 10:13:41.563Z353.027° N2025-02-06 10:14:41.563Z11.94° NNE19.053°2025-02-06 10:17:41.563Z65.012° ENE
6 mins2025-02-06 11:52:41.563Z311.815° NW2025-02-06 11:54:41.563Z322.73° NNW43.189°2025-02-06 11:58:41.563Z128.795° SE
|